Glens Falls, NY

7:12 PM EDT on October 19, 2019 (GMT -0400)
Bennett Memorial

Weather History for KGFL - August, 2019

Change the Weather History Date:

Sunday, August 25, 2019

  Actual Average Record
Temperature  
Mean Temperature 62 °F 66 °F  
Max Temperature 76 °F 78 °F 94 °F (1947)
Min Temperature 47 °F 54 °F 39 °F (1971)
Degree Days  
Heating Degree Days 3 2  
Month to date heating degree days 15 30  
Since 1 June heating degree days 85 141  
Since 1 July heating degree days 15 51  
Cooling Degree Days 0 3  
Month to date cooling degree days 90 91  
Year to date cooling degree days 386 311  
Since 1 June cooling degree days 377 299  
Growing Degree Days 12 (Base 50)    
Moisture  
Dew Point 49 °F    
Average Humidity 67    
Maximum Humidity 100    
Minimum Humidity 33    
Precipitation  
Precipitation 0.00 in 0.10 in 2.83 in (1924)
Month to date precipitation 2.83 3.07  
Year to date precipitation 28.77 25.20  
Sea Level Pressure  
Sea Level Pressure 30.31 in    
Wind  
Wind Speed 3 mph (NE)    
Max Wind Speed 14 mph    
Max Gust Speed 18 mph    
Visibility 5 miles    
Events Fog    
T = Trace of Precipitation, MM = Missing Value Source: NWS Daily Summary

Daily Weather History Graph

Daily Weather History Graph

Search for Another Location

Airport or City:

Astronomy

Aug. 25, 2019 Rise Set
Actual Time 6:10 AM EDT 7:41 PM EDT
Civil Twilight 5:40 AM EDT 8:11 PM EDT
Nautical Twilight 5:04 AM EDT 8:47 PM EDT
Astronomical Twilight 4:25 AM EDT 9:26 PM EDT
Moon 12:38 AM EDT (8/25) 4:05 PM EDT (8/25)
Length of Visible Light 14h 31m
Length of Day
13h 31m
Waning Crescent, 29% of the Moon is Illuminated
Aug 25
Waning Crescent
Aug 30
New
Sep 5
First Quarter
Sep 14
Full
Sep 21
Last Quarter

Hourly Weather History & Observations

Time (EDT) Temp. Dew Point Humidity Pressure Visibility Wind Dir Wind Speed Gust Speed Precip Events Conditions
12:23 AM 52.0 °F 52.0 °F 100% 30.31 in 1.8 mi Calm Calm - N/A   Clear
12:34 AM 53.1 °F 52.0 °F 96% 30.31 in 4.0 mi Calm Calm - N/A   Clear
12:50 AM 51.8 °F 50.0 °F 94% 30.31 in 1.8 mi Calm Calm - N/A   Clear
12:53 AM 51.1 °F 50.0 °F 96% 30.31 in 1.2 mi Calm Calm - N/A   Clear
1:03 AM 52.0 °F 50.0 °F 93% 30.31 in 3.0 mi Calm Calm - N/A   Clear
1:53 AM 52.0 °F 50.0 °F 93% 30.30 in 10.0 mi Calm Calm - N/A   Clear
2:10 AM 50.0 °F 48.9 °F 96% 30.29 in 1.8 mi Calm Calm - N/A   Clear
2:28 AM 50.0 °F 50.0 °F 100% 30.29 in 3.0 mi Calm Calm - N/A   Clear
2:35 AM 50.0 °F 48.9 °F 96% 30.29 in 1.8 mi Calm Calm - N/A   Clear
2:44 AM 50.0 °F 48.9 °F 96% 30.30 in 1.0 mi Calm Calm - N/A   Mist
2:53 AM 50.0 °F 48.9 °F 96% 30.30 in 1.0 mi Calm Calm - N/A   Mist
3:00 AM 50.0 °F 48.9 °F 96% 30.30 in 1.8 mi Calm Calm - N/A   Partly Cloudy
3:03 AM 50.0 °F 48.9 °F 96% 30.30 in 3.0 mi Calm Calm - N/A   Partly Cloudy
3:27 AM 48.9 °F 48.0 °F 97% 30.31 in 1.8 mi Calm Calm - N/A   Partly Cloudy
3:45 AM 51.1 °F 50.0 °F 96% 30.31 in 2.0 mi Calm Calm - N/A   Partly Cloudy
3:53 AM 50.0 °F 50.0 °F 100% 30.31 in 4.0 mi Calm Calm - N/A   Partly Cloudy
4:27 AM 50.0 °F 48.9 °F 96% 30.31 in 1.8 mi Calm Calm - N/A   Partly Cloudy
4:36 AM 48.9 °F 48.0 °F 97% 30.31 in 0.5 mi Calm Calm - N/A Fog Fog
4:53 AM 50.0 °F 48.9 °F 96% 30.32 in 4.0 mi Calm Calm - N/A   Overcast
5:21 AM 50.0 °F 48.9 °F 96% 30.32 in 1.8 mi Calm Calm - N/A   Scattered Clouds
5:31 AM 48.9 °F 48.0 °F 97% 30.32 in 0.8 mi Calm Calm - N/A   Partly Cloudy
5:48 AM 48.2 °F 48.2 °F 100% 30.32 in 2.0 mi Calm Calm - N/A   Partly Cloudy
5:49 AM 48.9 °F 48.0 °F 97% 30.33 in 2.5 mi Calm Calm - N/A   Partly Cloudy
5:56 AM 48.9 °F 48.0 °F 97% 30.33 in 10.0 mi Calm Calm - N/A   Partly Cloudy
6:11 AM 48.9 °F 48.0 °F 97% 30.33 in 1.2 mi Calm Calm - N/A   Clear
6:21 AM 48.9 °F 48.0 °F 97% 30.33 in 0.2 mi Calm Calm - N/A Fog Fog
6:26 AM 48.9 °F 48.0 °F 97% 30.33 in 0.5 mi Calm Calm - N/A Fog Fog
6:29 AM 48.9 °F 48.0 °F 97% 30.33 in 2.5 mi Calm Calm - N/A   Clear
6:36 AM 48.9 °F 48.0 °F 97% 30.34 in 10.0 mi Calm Calm - N/A   Clear
6:53 AM 50.0 °F 48.9 °F 96% 30.35 in 10.0 mi Calm Calm - N/A   Scattered Clouds
7:53 AM 57.0 °F 54.0 °F 89% 30.36 in 10.0 mi East 4.6 mph - N/A   Overcast
8:53 AM 63.0 °F 57.0 °F 81% 30.37 in 10.0 mi Calm Calm - N/A   Overcast
9:53 AM 66.0 °F 57.0 °F 73% 30.37 in 10.0 mi NNW 5.8 mph - N/A   Overcast
10:53 AM 66.9 °F 53.1 °F 61% 30.36 in 10.0 mi Variable 3.5 mph - N/A   Clear
11:53 AM 70.0 °F 53.1 °F 55% 30.34 in 10.0 mi NNE 5.8 mph - N/A   Mostly Cloudy
12:53 PM 73.0 °F 54.0 °F 51% 30.32 in 10.0 mi NNE 8.1 mph - N/A   Partly Cloudy
1:53 PM 73.9 °F 50.0 °F 43% 30.31 in 10.0 mi ENE 5.8 mph - N/A   Partly Cloudy
2:53 PM 75.0 °F 48.0 °F 38% 30.29 in 10.0 mi ENE 11.5 mph - N/A   Clear
3:53 PM 75.0 °F 46.9 °F 37% 30.27 in 10.0 mi NNE 9.2 mph - N/A   Clear
4:53 PM 75.9 °F 46.0 °F 35% 30.25 in 10.0 mi ENE 10.4 mph - N/A   Clear
5:53 PM 75.0 °F 44.1 °F 33% 30.25 in 10.0 mi ENE 6.9 mph - N/A   Clear
6:53 PM 73.0 °F 44.1 °F 35% 30.25 in 10.0 mi NE 5.8 mph - N/A   Clear
7:53 PM 62.1 °F 52.0 °F 70% 30.26 in 10.0 mi Calm Calm - N/A   Clear
10:53 PM 52.0 °F 50.0 °F 93% 30.30 in 9.0 mi Calm Calm - N/A   Clear
11:02 PM 50.0 °F 48.9 °F 96% 30.29 in 2.0 mi Calm Calm - N/A   Clear
11:10 PM 52.0 °F 50.0 °F 93% 30.29 in 10.0 mi Calm Calm - N/A   Clear
11:29 PM 50.0 °F 48.9 °F 96% 30.29 in 2.0 mi Calm Calm - N/A   Clear
11:38 PM 50.0 °F 48.9 °F 96% 30.29 in 8.0 mi Calm Calm - N/A   Clear
11:53 PM 50.0 °F 48.0 °F 93% 30.30 in 8.0 mi Calm Calm - N/A   Clear
11:58 PM 48.9 °F 48.0 °F 97% 30.29 in 1.8 mi Calm Calm - N/A   Clear